Tampa Macdill AFB, FL

10:37 AM EST on December 09, 2019 (GMT -0500)
MacDill Air Force Base

Weather History for KMCF - August, 2019

Change the Weather History Date:

Monday, August 19, 2019

  Actual Average Record
Temperature  
Mean Temperature 82 °F -  
Max Temperature 90 °F 88 °F 96 °F (2015)
Min Temperature 75 °F 73 °F 73 °F (1996)
Cooling Degree Days 17    
Growing Degree Days 32 (Base 50)    
Moisture  
Dew Point 73 °F    
Average Humidity 76    
Maximum Humidity 93    
Minimum Humidity 58    
Precipitation  
Precipitation 0.00 in - - ()
Sea Level Pressure  
Sea Level Pressure 30.08 in    
Wind  
Wind Speed 5 mph (ENE)    
Max Wind Speed 14 mph    
Max Gust Speed 20 mph    
Visibility 10 miles    
Events Rain , Thunderstorm    
Averages and records for this station are not official NWS values.
T = Trace of Precipitation, MM = Missing Value Source: NWS Daily Summary

Daily Weather History Graph

Daily Weather History Graph

Search for Another Location

Airport or City:

Astronomy

Aug. 19, 2019 Rise Set
Actual Time 7:02 AM EDT 8:04 PM EDT
Civil Twilight 6:37 AM EDT 8:29 PM EDT
Nautical Twilight 6:09 AM EDT 8:57 PM EDT
Astronomical Twilight 5:39 AM EDT 9:27 PM EDT
Moon 10:44 PM EDT (8/19) 10:26 AM EDT (8/19)
Length of Visible Light 13h 51m
Length of Day
13h 02m
Waning Gibbous, 85% of the Moon is Illuminated
Aug 19
Waning Gibbous
Aug 23
Last Quarter
Aug 30
New
Sep 5
First Quarter
Sep 14
Full

Hourly Weather History & Observations

Time (EDT) Temp. Heat Index Dew Point Humidity Pressure Visibility Wind Dir Wind Speed Gust Speed Precip Events Conditions
12:56 AM 77.5 °F - 73.9 °F 89% 30.11 in 10.0 mi ENE 5.8 mph - N/A   Clear
1:56 AM 76.6 °F - 73.8 °F 91% 30.10 in 10.0 mi North 3.5 mph - N/A   Clear
2:56 AM 76.6 °F - 73.4 °F 90% 30.09 in 10.0 mi NNW 4.6 mph - N/A   Clear
3:56 AM 76.1 °F - 72.9 °F 90% 30.07 in 10.0 mi North 3.5 mph - N/A   Clear
4:56 AM 75.4 °F - 73.2 °F 93% 30.07 in 10.0 mi NNE 4.6 mph - N/A   Clear
5:56 AM 76.1 °F - 72.9 °F 90% 30.06 in 10.0 mi East 5.8 mph - N/A   Clear
6:56 AM 75.4 °F - 72.5 °F 91% 30.07 in 10.0 mi East 3.5 mph - N/A   Clear
7:56 AM 76.1 °F - 73.6 °F 92% 30.09 in 10.0 mi East 4.6 mph - N/A   Clear
8:56 AM 78.4 °F - 73.8 °F 85% 30.10 in 10.0 mi East 6.9 mph - N/A   Clear
9:56 AM 80.6 °F 85.7 °F 74.1 °F 81% 30.11 in 10.0 mi East 5.8 mph - N/A   Clear
10:56 AM 82.6 °F 89.1 °F 74.5 °F 76% 30.12 in 10.0 mi East 4.6 mph - N/A   Clear
11:33 AM 84.2 °F 92.3 °F 75.2 °F 74% 30.12 in 10.0 mi East 3.5 mph - N/A   Light Drizzle
11:35 AM 84.2 °F 92.3 °F 75.2 °F 74% 30.12 in 10.0 mi Calm Calm - N/A   Partly Cloudy
11:56 AM 85.5 °F 93.8 °F 74.5 °F 70% 30.12 in 10.0 mi ESE 5.8 mph - 0.00 in   Partly Cloudy
12:02 PM 86.0 °F 95.1 °F 75.2 °F 70% 30.12 in 10.0 mi ESE 4.6 mph - N/A   Light Drizzle
12:19 PM 87.8 °F 97.6 °F 75.2 °F 66% 30.12 in 10.0 mi Calm Calm - N/A   Light Drizzle
12:56 PM 87.8 °F 96.6 °F 74.5 °F 64% 30.11 in 10.0 mi ENE 5.8 mph - 0.00 in   Partly Cloudy
1:56 PM 88.5 °F 96.3 °F 73.2 °F 60% 30.10 in 10.0 mi ENE 4.6 mph - N/A   Scattered Clouds
2:56 PM 89.8 °F 99.7 °F 74.8 °F 61% 30.07 in 10.0 mi West 3.5 mph - N/A   Scattered Clouds
3:27 PM 87.8 °F 97.6 °F 75.2 °F 66% 30.07 in 10.0 mi SSE 4.6 mph - N/A Rain Light Rain
3:34 PM 87.8 °F 97.6 °F 75.2 °F 66% 30.06 in 10.0 mi SSE 3.5 mph - N/A   Partly Cloudy
3:45 PM 86.0 °F 93.4 °F 73.4 °F 66% 30.06 in 10.0 mi East 6.9 mph 19.6 mph N/A Thunderstorm Thunderstorm
3:56 PM 86.5 °F 92.9 °F 72.0 °F 62% 30.06 in 10.0 mi East 13.8 mph - 0.00 in Thunderstorm Thunderstorm
4:00 PM 86.0 °F 90.4 °F 69.8 °F 58% 30.07 in 10.0 mi NE 11.5 mph - N/A Thunderstorm Partly Cloudy
4:56 PM 83.3 °F 87.4 °F 70.2 °F 64% 30.03 in 10.0 mi NNE 4.6 mph - N/A   Partly Cloudy
5:55 PM 86.0 °F 93.4 °F 73.4 °F 66% 30.04 in 10.0 mi East 4.6 mph - N/A   Light Drizzle
5:56 PM 86.5 °F 93.8 °F 72.9 °F 64% 30.04 in 10.0 mi East 4.6 mph - N/A   Light Drizzle
6:05 PM 86.0 °F 91.8 °F 71.6 °F 62% 30.04 in 10.0 mi ESE 8.1 mph - N/A   Partly Cloudy
6:56 PM 85.6 °F 90.4 °F 70.5 °F 60% 30.02 in 10.0 mi ENE 6.9 mph - 0.00 in   Clear
7:56 PM 82.9 °F 89.1 °F 73.4 °F 73% 30.04 in 10.0 mi Calm Calm - N/A   Clear
8:56 PM 80.8 °F 85.6 °F 73.2 °F 78% 30.06 in 10.0 mi ENE 3.5 mph - N/A   Clear
9:56 PM 78.4 °F - 73.2 °F 84% 30.08 in 10.0 mi Calm Calm - N/A   Clear
10:41 PM 77.0 °F - 73.4 °F 89% 30.10 in 10.0 mi ENE 4.6 mph - N/A   Light Drizzle
10:50 PM 77.0 °F - 73.4 °F 89% 30.10 in 10.0 mi ENE 4.6 mph - N/A   Partly Cloudy
10:56 PM 78.1 °F - 72.5 °F 83% 30.10 in 10.0 mi ENE 4.6 mph - 0.00 in   Partly Cloudy
11:56 PM 79.0 °F - 73.6 °F 83% 30.11 in 10.0 mi East 8.1 mph - N/A   Clear